AUA133 LOWW-LSZH

Flight info

Callsign AUA133
Flight time N/A
Altitude 30000
Route SOVIL DCT SITNI DCT BAGSI DCT MATIG DCT TRAUN L856 NEGRA
Aircraft A320/M-SDE3FGHIRWY/LB1

Departure

Time 2026-04-20 17:31
Airport Vienna International Airport (LOWW)

Arrival

Time N/A
Airport Zürich Airport (LSZH)
Time Latitude Longitude Altitude Speed Heading
2026-04-20 16:51 48.11882 16.56827 600 ft 0 kts 201°
2026-04-20 17:21 48.11901 16.56838 600 ft 4 kts 204°
2026-04-20 17:21 48.11920 16.56850 599 ft 4 kts 193°
2026-04-20 17:21 48.11944 16.56850 598 ft 4 kts 146°
2026-04-20 17:22 48.11958 16.56827 598 ft 1 kts 115°
2026-04-20 17:24 48.11942 16.56877 598 ft 8 kts 115°
2026-04-20 17:24 48.11921 16.56942 599 ft 6 kts 115°
2026-04-20 17:25 48.11908 16.56984 600 ft 3 kts 115°
2026-04-20 17:25 48.11893 16.57032 600 ft 8 kts 115°
2026-04-20 17:25 48.11859 16.57142 602 ft 13 kts 109°
2026-04-20 17:25 48.11841 16.57261 602 ft 10 kts 110°
2026-04-20 17:26 48.11807 16.57344 603 ft 9 kts 144°
2026-04-20 17:26 48.11761 16.57367 613 ft 7 kts 163°
2026-04-20 17:26 48.11679 16.57400 609 ft 17 kts 165°
2026-04-20 17:26 48.11560 16.57452 609 ft 17 kts 163°
2026-04-20 17:27 48.11458 16.57440 612 ft 13 kts 203°
2026-04-20 17:27 48.11393 16.57391 613 ft 8 kts 207°
2026-04-20 17:27 48.11353 16.57361 618 ft 8 kts 206°
2026-04-20 17:27 48.11292 16.57316 617 ft 12 kts 206°
2026-04-20 17:28 48.11215 16.57284 619 ft 9 kts 159°
2026-04-20 17:28 48.11173 16.57391 620 ft 18 kts 115°
2026-04-20 17:28 48.11111 16.57583 623 ft 16 kts 115°
2026-04-20 17:28 48.11059 16.57653 616 ft 8 kts 179°
2026-04-20 17:29 48.11022 16.57636 623 ft 0 kts 206°
2026-04-20 17:29 48.11017 16.57632 622 ft 3 kts 207°
2026-04-20 17:29 48.10972 16.57591 624 ft 11 kts 214°
2026-04-20 17:30 48.10936 16.57480 621 ft 14 kts 275°
2026-04-20 17:30 48.11020 16.57212 623 ft 59 kts 296°
2026-04-20 17:30 48.11297 16.56357 626 ft 121 kts 296°
2026-04-20 17:30 48.11748 16.55003 695 ft 160 kts 297°
2026-04-20 17:31 48.12114 16.53473 1420 ft 158 kts 277°
2026-04-20 17:31 48.11858 16.51859 2073 ft 166 kts 240°
2026-04-20 17:31 48.11191 16.50376 2555 ft 181 kts 245°
2026-04-20 17:31 48.10579 16.48610 2900 ft 202 kts 248°
2026-04-20 17:32 48.09931 16.46613 3230 ft 223 kts 248°
2026-04-20 17:32 48.09132 16.44480 3579 ft 249 kts 239°
2026-04-20 17:32 48.08113 16.42260 4171 ft 264 kts 237°
2026-04-20 17:32 48.07025 16.40025 5085 ft 267 kts 237°
2026-04-20 17:33 48.05917 16.37802 6088 ft 266 kts 236°
2026-04-20 17:33 48.04801 16.35575 7015 ft 268 kts 237°
2026-04-20 17:33 48.03841 16.33205 7897 ft 266 kts 251°
2026-04-20 17:33 48.03362 16.30565 8805 ft 263 kts 266°
2026-04-20 17:34 48.03340 16.27847 9751 ft 262 kts 274°
2026-04-20 17:34 48.03397 16.25102 10421 ft 272 kts 273°
2026-04-20 17:34 48.03456 16.22155 10679 ft 296 kts 273°
2026-04-20 17:34 48.03517 16.18972 10940 ft 316 kts 273°
2026-04-20 17:35 48.03575 16.15679 11538 ft 323 kts 273°
2026-04-20 17:35 48.03633 16.12303 12263 ft 327 kts 272°
2026-04-20 17:35 48.03689 16.08890 13004 ft 330 kts 272°
2026-04-20 17:35 48.03743 16.05439 13730 ft 334 kts 272°
2026-04-20 17:36 48.03797 16.01953 14365 ft 337 kts 272°
2026-04-20 17:36 48.03852 15.98440 15024 ft 340 kts 272°
2026-04-20 17:36 48.03907 15.94897 15678 ft 342 kts 272°
2026-04-20 17:36 48.03961 15.91318 16314 ft 345 kts 272°
2026-04-20 17:37 48.04012 15.87717 16975 ft 348 kts 272°
2026-04-20 17:37 48.04063 15.84103 17616 ft 350 kts 272°
2026-04-20 17:37 48.04114 15.80442 18271 ft 353 kts 272°
2026-04-20 17:37 48.04164 15.76758 18847 ft 355 kts 272°
2026-04-20 17:38 48.04215 15.73058 19449 ft 357 kts 272°
2026-04-20 17:38 48.04266 15.69372 20054 ft 358 kts 272°
2026-04-20 17:38 48.04315 15.65649 20653 ft 359 kts 272°
2026-04-20 17:38 48.04365 15.61904 21219 ft 361 kts 272°
2026-04-20 17:39 48.04413 15.58143 21775 ft 362 kts 272°
2026-04-20 17:39 48.04456 15.54375 22332 ft 363 kts 272°
2026-04-20 17:39 48.04500 15.50591 22856 ft 365 kts 272°
2026-04-20 17:39 48.04543 15.46789 23360 ft 367 kts 272°
2026-04-20 17:40 48.04585 15.42969 23816 ft 368 kts 272°
2026-04-20 17:40 48.04624 15.39143 24199 ft 369 kts 272°
2026-04-20 17:40 48.04665 15.35310 24625 ft 369 kts 273°
2026-04-20 17:40 48.04720 15.31486 25094 ft 367 kts 273°
2026-04-20 17:41 48.04786 15.27672 25534 ft 367 kts 274°
2026-04-20 17:41 48.04854 15.23855 25930 ft 368 kts 274°
2026-04-20 17:41 48.04920 15.20022 26314 ft 369 kts 274°
2026-04-20 17:41 48.04983 15.16183 26679 ft 370 kts 274°
2026-04-20 17:42 48.05044 15.12332 27034 ft 371 kts 274°
2026-04-20 17:42 48.05102 15.08466 27389 ft 372 kts 274°
2026-04-20 17:42 48.05159 15.04597 27716 ft 373 kts 274°
2026-04-20 17:42 48.05212 15.00753 28014 ft 375 kts 274°
2026-04-20 17:43 48.05262 14.96858 28316 ft 377 kts 274°
2026-04-20 17:43 48.05311 14.92946 28599 ft 378 kts 274°
2026-04-20 17:43 48.05357 14.89005 28897 ft 379 kts 274°
2026-04-20 17:43 48.05403 14.85059 29191 ft 380 kts 274°
2026-04-20 17:44 48.05451 14.81111 29494 ft 380 kts 274°
2026-04-20 17:44 48.05490 14.77173 29876 ft 378 kts 274°
2026-04-20 17:44 48.05520 14.73249 30015 ft 375 kts 274°
2026-04-20 17:45 48.05573 14.65516 30025 ft 370 kts 274°
2026-04-20 17:45 48.05625 14.57835 30022 ft 370 kts 274°
2026-04-20 17:46 48.05674 14.50124 30028 ft 371 kts 274°
2026-04-20 17:46 48.05715 14.42464 30030 ft 371 kts 274°
2026-04-20 17:47 48.05753 14.34758 30026 ft 371 kts 274°
2026-04-20 17:47 48.05789 14.27059 30024 ft 370 kts 274°
2026-04-20 17:48 48.05825 14.19371 30021 ft 370 kts 274°
2026-04-20 17:48 48.05856 14.11667 30011 ft 371 kts 274°
2026-04-20 17:49 48.05869 14.03958 30015 ft 371 kts 274°
2026-04-20 17:49 48.05879 13.96244 30016 ft 371 kts 274°
2026-04-20 17:50 48.05893 13.88518 30023 ft 372 kts 274°
2026-04-20 17:50 48.05897 13.80789 30025 ft 372 kts 274°
2026-04-20 17:51 48.05892 13.73060 30021 ft 372 kts 273°
2026-04-20 17:51 48.05885 13.65323 30023 ft 372 kts 273°
2026-04-20 17:52 48.05867 13.57574 30028 ft 372 kts 273°
2026-04-20 17:52 48.05500 13.49838 30029 ft 376 kts 268°
2026-04-20 17:53 48.04850 13.42135 30028 ft 376 kts 267°
2026-04-20 17:53 48.04189 13.34368 30030 ft 376 kts 267°
2026-04-20 17:54 48.03525 13.26636 30023 ft 376 kts 267°
2026-04-20 17:54 48.02859 13.18879 30029 ft 376 kts 267°
2026-04-20 17:55 48.02185 13.11130 30027 ft 376 kts 267°
2026-04-20 17:55 48.01502 13.03396 30030 ft 376 kts 267°
2026-04-20 17:56 48.00819 12.95655 30034 ft 376 kts 267°
2026-04-20 17:56 48.00128 12.87919 30035 ft 376 kts 267°
2026-04-20 17:57 47.99432 12.80188 30027 ft 376 kts 267°
2026-04-20 17:57 47.98728 12.72448 30029 ft 376 kts 267°
2026-04-20 17:58 47.98017 12.64720 30031 ft 376 kts 267°
2026-04-20 17:58 47.97304 12.56981 30034 ft 376 kts 267°
2026-04-20 17:59 47.96596 12.49238 30018 ft 378 kts 266°
2026-04-20 17:59 47.95877 12.41441 30046 ft 383 kts 266°
2026-04-20 18:00 47.95144 12.33581 30052 ft 382 kts 266°
2026-04-20 18:00 47.94403 12.25728 30048 ft 382 kts 266°
2026-04-20 18:01 47.93658 12.17880 30046 ft 382 kts 266°
2026-04-20 18:01 47.92900 12.10030 30041 ft 382 kts 266°
2026-04-20 18:02 47.92130 12.02192 30039 ft 382 kts 266°
2026-04-20 18:02 47.91362 11.94351 30038 ft 382 kts 266°
2026-04-20 18:03 47.90587 11.86509 30038 ft 382 kts 266°
2026-04-20 18:03 47.89810 11.78678 30045 ft 382 kts 266°
2026-04-20 18:04 47.89037 11.70842 30044 ft 382 kts 266°
2026-04-20 18:04 47.88384 11.64320 30046 ft 382 kts 266°
2026-04-20 18:05 47.87065 11.51299 30060 ft 383 kts 266°
2026-04-20 18:05 47.86392 11.44736 29995 ft 383 kts 265°
2026-04-20 18:06 47.85579 11.36810 30054 ft 389 kts 265°
2026-04-20 18:06 47.84769 11.28887 30052 ft 390 kts 265°
2026-04-20 18:07 47.83944 11.20913 30040 ft 390 kts 265°
2026-04-20 18:07 47.83101 11.12938 30042 ft 390 kts 265°
2026-04-20 18:08 47.82257 11.04968 30039 ft 390 kts 265°
2026-04-20 18:08 47.81407 10.96999 30041 ft 390 kts 265°
2026-04-20 18:09 47.80546 10.89025 30050 ft 390 kts 265°
2026-04-20 18:09 47.79683 10.81046 30055 ft 390 kts 265°